IK0XIH-3 Weather Reports


Display with metric or nautical units.
time (UTC)temp
F
wind
direction
speed
MPH
gust
MPH
rain 1hr
in
rain 24hr
in
rain mn
in
humidity
%
barometer
mb
20260507093816 72 304 4.0 7.0 0.00 0.01 0.00 65 1011.2
20260507093316 72 264 3.0 4.0 0.00 0.01 0.00 65 1011.2
20260507092819 72 257 4.0 5.0 0.00 0.01 0.00 65 1011.1
20260507092319 73 63 1.0 2.0 0.00 0.01 0.00 63 1011.1
20260507091819 72 62 0.0 4.0 0.00 0.01 0.00 64 1011.1
20260507091319 73 12 0.0 3.0 0.00 0.01 0.00 65 1011.1
20260507090816 72 65 1.0 3.0 0.00 0.01 0.00 66 1011.1
20260507090316 72 67 0.0 4.0 0.00 0.01 0.00 65 1011.1
20260507085819 72 66 1.0 5.0 0.00 0.01 0.00 66 1011.3
20260507085319 71 53 0.0 4.0 0.00 0.01 0.00 66 1011.3
20260507084819 71 15 3.0 5.0 0.00 0.01 0.00 67 1011.3
20260507084316 71 9 1.0 3.0 0.00 0.01 0.00 66 1011.3
20260507083816 71 26 1.0 3.0 0.00 0.01 0.00 66 1011.3
20260507083316 71 26 3.0 4.0 0.00 0.01 0.00 65 1011.3
20260507082816 70 267 0.0 3.0 0.00 0.01 0.00 68 1011.3
20260507082319 70 44 0.0 2.0 0.00 0.01 0.00 66 1011.3
20260507081819 70 46 0.0 2.0 0.00 0.01 0.00 66 1011.3
20260507081318 69 40 2.0 4.0 0.00 0.01 0.00 67 1011.3
20260507080818 70 340 1.0 4.0 0.00 0.01 0.00 67 1011.3
20260507080318 70 68 2.0 3.0 0.00 0.01 0.00 69 1011.3
20260507075815 69 20 1.0 4.0 0.00 0.01 0.00 68 1011.3
20260507075315 69 34 2.0 5.0 0.00 0.01 0.00 68 1011.3
20260507074818 69 340 2.0 6.0 0.00 0.01 0.00 70 1011.3
20260507074315 69 38 2.0 5.0 0.00 0.01 0.00 69 1011.7
20260507073818 69 74 2.0 7.0 0.00 0.01 0.00 70 1011.7
20260507073318 69 53 3.0 7.0 0.00 0.01 0.00 70 1011.7
20260507072815 69 311 1.0 3.0 0.00 0.01 0.00 70 1011.9
20260507072318 68 46 2.0 3.0 0.00 0.01 0.00 71 1011.9
20260507071818 68 19 1.0 4.0 0.00 0.01 0.00 71 1011.9
20260507071318 68 323 0.0 3.0 0.00 0.01 0.00 72 1011.9
20260507070815 67 13 2.0 3.0 0.00 0.01 0.00 75 1011.9
20260507070315 66 294 1.0 4.0 0.00 0.01 0.00 75 1011.9
20260507065818 67 334 2.0 2.0 0.00 0.01 0.00 75 1011.8
20260507065318 66 336 0.0 2.0 0.00 0.01 0.00 78 1011.8
20260507064815 66 338 1.0 2.0 0.00 0.01 0.00 79 1011.8
20260507064315 66 339 0.0 0.0 0.00 0.01 0.00 81 1011.7
20260507063818 65 339 0.0 1.0 0.00 0.01 0.00 83 1011.7
20260507063316 64 339 0.0 0.0 0.00 0.02 0.00 84 1011.7
20260507062815 64 340 0.0 1.0 0.00 0.02 0.00 86 1011.5
20260507062318 63 340 0.0 1.0 0.00 0.02 0.00 88 1011.5
20260507061816 63 344 0.0 0.0 0.00 0.02 0.00 89 1011.5
20260507061315 63 344 0.0 0.0 0.00 0.02 0.00 90 1011.4
20260507060815 62 344 0.0 0.0 0.00 0.02 0.00 91 1011.4
20260507060315 62 344 0.0 0.0 0.00 0.02 0.00 91 1011.4
20260507055815 61 344 0.0 0.0 0.00 0.02 0.00 92 1011.5
20260507055315 61 344 0.0 0.0 0.00 0.03 0.00 92 1011.5
20260507054815 61 344 0.0 0.0 0.00 0.03 0.00 92 1011.5
20260507054318 61 344 0.0 0.0 0.00 0.03 0.00 92 1011.4
20260507053815 61 344 0.0 0.0 0.00 0.03 0.00 92 1011.4
20260507053315 60 345 0.0 0.0 0.00 0.04 0.00 92 1011.4
20260507052815 60 345 0.0 1.0 0.00 0.05 0.00 92 1011.4
20260507052315 60 344 0.0 0.0 0.00 0.05 0.00 92 1011.4
20260507051815 60 344 0.0 0.0 0.00 0.05 0.00 92 1011.4
20260507051315 60 344 0.0 0.0 0.00 0.05 0.00 93 1011.4
20260507050818 60 344 0.0 0.0 0.00 0.05 0.00 93 1011.4
20260507050315 60 344 0.0 0.0 0.00 0.05 0.00 93 1011.4
20260507045815 60 344 0.0 0.0 0.00 0.05 0.00 92 1011.3
20260507045315 59 344 0.0 0.0 0.00 0.05 0.00 93 1011.3
20260507044815 59 344 0.0 1.0 0.00 0.05 0.00 93 1011.3
20260507044315 59 344 0.0 0.0 0.00 0.05 0.00 93 1011.3
20260507043818 59 344 0.0 0.0 0.00 0.05 0.00 93 1011.3
20260507043315 59 344 0.0 1.0 0.00 0.05 0.00 93 1011.3
20260507042818 59 344 0.0 0.0 0.00 0.05 0.00 93 1011.4
20260507042318 59 344 0.0 2.0 0.00 0.05 0.00 93 1011.4
20260507041818 59 334 0.0 2.0 0.00 0.05 0.00 93 1011.4
20260507041315 59 327 0.0 0.0 0.00 0.05 0.00 93 1011.3
20260507040815 59 327 0.0 0.0 0.00 0.05 0.00 93 1011.3
20260507040318 59 327 0.0 0.0 0.00 0.05 0.00 93 1011.3
20260507035815 59 327 0.0 0.0 0.00 0.05 0.00 93 1011.1
20260507035318 59 327 0.0 0.0 0.00 0.05 0.00 93 1011.1
20260507034815 59 327 0.0 0.0 0.00 0.05 0.00 93 1011.1
20260507034315 59 327 0.0 0.0 0.00 0.05 0.00 93 1011.1
20260507033818 59 327 0.0 1.0 0.00 0.05 0.00 93 1011.1
20260507033315 59 327 0.0 1.0 0.00 0.05 0.00 93 1011.1
20260507032818 60 327 0.0 0.0 0.00 0.05 0.00 93 1011.1
20260507032315 59 327 0.0 1.0 0.00 0.05 0.00 93 1011.1
20260507031815 59 325 0.0 1.0 0.00 0.05 0.00 93 1011.1
20260507031318 59 325 0.0 0.0 0.00 0.05 0.00 93 1011.1
20260507030818 59 324 0.0 2.0 0.00 0.05 0.00 93 1011.1
20260507030315 59 317 0.0 0.0 0.00 0.05 0.00 93 1011.1
20260507025818 59 317 0.0 1.0 0.00 0.05 0.00 93 1011.2
20260507025315 59 317 0.0 0.0 0.00 0.05 0.00 93 1011.2
20260507024818 60 317 0.0 0.0 0.00 0.05 0.00 93 1011.2
20260507024315 60 317 0.0 0.0 0.00 0.05 0.00 93 1011.2
20260507023814 60 317 0.0 0.0 0.00 0.05 0.00 93 1011.2
20260507023315 60 317 0.0 0.0 0.00 0.05 0.00 93 1011.2
20260507022814 59 317 0.0 0.0 0.00 0.05 0.00 92 1011.1
20260507022314 60 317 0.0 0.0 0.00 0.05 0.00 92 1011.1
20260507021814 60 317 0.0 0.0 0.00 0.05 0.00 92 1011.1
20260507021314 60 317 0.0 0.0 0.00 0.05 0.00 92 1011.1
20260507020817 60 317 0.0 0.0 0.00 0.05 0.00 92 1011.1
20260507020317 60 317 0.0 0.0 0.00 0.05 0.00 92 1011.1
20260507015814 60 317 0.0 0.0 0.00 0.05 0.00 92 1011.2
20260507015314 60 317 0.0 0.0 0.00 0.05 0.00 92 1011.2
20260507014817 60 317 0.0 0.0 0.00 0.05 0.00 92 1011.2
20260507014314 60 317 0.0 0.0 0.00 0.05 0.00 92 1011.0
20260507013817 59 317 0.0 0.0 0.00 0.05 0.00 91 1011.0
20260507013314 59 317 0.0 2.0 0.00 0.05 0.00 91 1011.0
20260507012814 59 311 0.0 0.0 0.00 0.05 0.00 92 1011.1
20260507012317 60 311 0.0 0.0 0.00 0.05 0.00 92 1011.1
20260507011814 59 311 0.0 1.0 0.00 0.05 0.00 92 1011.1
20260507011314 59 311 0.0 0.0 0.00 0.05 0.00 92 1011.2
20260507010817 60 311 0.0 0.0 0.00 0.05 0.00 92 1011.2
20260507010314 59 311 0.0 2.0 0.00 0.05 0.00 92 1011.2
20260507005814 60 311 0.0 1.0 0.00 0.05 0.00 92 1011.2
20260507005314 60 311 0.0 0.0 0.00 0.05 0.00 92 1011.2
20260507004814 60 311 0.0 0.0 0.00 0.05 0.00 92 1011.2
20260507004317 60 311 0.0 0.0 0.00 0.05 0.00 91 1011.2
20260507003817 60 311 0.0 0.0 0.00 0.05 0.00 91 1011.2
20260507003314 60 311 0.0 0.0 0.00 0.05 0.00 91 1011.2
20260507002817 60 311 0.0 2.0 0.00 0.05 0.00 91 1011.1
20260507002317 60 315 0.0 2.0 0.00 0.05 0.00 91 1011.1
20260507001814 60 315 0.0 0.0 0.00 0.05 0.00 91 1011.1
20260507001317 59 315 0.0 0.0 0.00 0.05 0.00 91 1011.0
20260507000814 60 315 0.0 0.0 0.00 0.05 0.00 91 1011.0
20260507000317 60 315 0.0 0.0 0.00 0.05 0.00 91 1011.0
20260506235817 60 315 0.0 0.0 0.00 0.05 0.00 91 1011.3
20260506235317 60 315 0.0 0.0 0.00 0.05 0.00 90 1011.3
20260506234817 60 315 0.0 2.0 0.00 0.05 0.00 90 1011.3
20260506234317 60 315 0.0 3.0 0.00 0.05 0.00 90 1011.4
20260506233814 60 36 0.0 0.0 0.00 0.05 0.00 89 1011.4
20260506233314 60 36 0.0 5.0 0.00 0.05 0.00 89 1011.4
20260506232817 60 46 3.0 5.0 0.00 0.05 0.00 88 1011.4
20260506232317 60 25 0.0 2.0 0.00 0.05 0.00 88 1011.4
20260506231814 60 25 0.0 1.0 0.00 0.05 0.00 89 1011.4
20260506231317 60 27 0.0 3.0 0.00 0.05 0.00 89 1011.8
20260506230814 60 17 0.0 2.0 0.00 0.05 0.00 89 1011.8
20260506230314 60 19 1.0 2.0 0.00 0.05 0.00 89 1011.8
20260506225817 60 17 1.0 2.0 0.00 0.05 0.00 89 1011.9
20260506225314 60 13 0.0 3.0 0.00 0.05 0.00 89 1011.9
20260506224814 60 14 1.0 3.0 0.00 0.05 0.00 89 1011.9
20260506224314 61 19 2.0 3.0 0.00 0.05 0.00 89 1011.9
20260506223817 61 39 1.0 3.0 0.00 0.05 0.00 88 1011.9
20260506223314 61 61 3.0 3.0 0.00 0.04 0.00 88 1011.9
20260506222817 61 87 1.0 2.0 0.00 0.04 0.00 88 1011.9
20260506222314 61 91 0.0 1.0 0.00 0.04 0.00 88 1011.9
20260506221817 61 91 0.0 2.0 0.00 0.04 0.00 87 1011.9
20260506221317 61 92 0.0 3.0 0.00 0.04 0.00 87 1011.8
20260506220817 61 124 1.0 4.0 0.00 0.04 0.00 86 1011.8
20260506220314 61 115 4.0 5.0 0.00 0.04 0.00 86 1011.8
20260506215814 62 146 1.0 5.0 0.00 0.04 0.00 85 1012.0
20260506215317 62 153 3.0 5.0 0.00 0.04 0.00 85 1012.0
20260506214814 62 157 4.0 6.0 0.00 0.04 0.00 84 1012.0
20260506214314 62 158 6.0 8.0 0.00 0.04 0.00 84 1012.1
20260506213814 62 182 6.0 7.0 0.00 0.04 0.00 83 1012.1
20260506213317 62 152 5.0 8.0 0.00 0.04 0.00 82 1012.1
20260506212814 62 170 5.0 6.0 0.00 0.04 0.00 81 1011.8
20260506212314 62 175 4.0 5.0 0.00 0.04 0.00 81 1011.8
20260506211817 62 165 2.0 6.0 0.00 0.04 0.00 81 1011.8
20260506211317 63 173 3.0 6.0 0.00 0.04 0.00 80 1011.7
20260506210814 63 150 5.0 6.0 0.00 0.04 0.00 80 1011.7
20260506210317 62 153 3.0 5.0 0.00 0.04 0.00 81 1011.7
20260506205814 62 162 3.0 4.0 0.00 0.04 0.00 82 1011.7
20260506205314 62 131 0.0 2.0 0.00 0.04 0.00 83 1011.7
20260506204817 62 130 0.0 2.0 0.00 0.04 0.00 83 1011.7
20260506204317 62 132 2.0 5.0 0.00 0.04 0.00 84 1011.8
20260506203813 62 101 2.0 5.0 0.00 0.04 0.00 84 1011.8
20260506203314 62 88 1.0 6.0 0.00 0.04 0.00 85 1011.8
20260506202813 62 77 3.0 8.0 0.00 0.04 0.00 85 1011.9
20260506202316 62 105 3.0 6.0 0.00 0.04 0.00 86 1011.9
20260506201814 62 103 3.0 4.0 0.00 0.04 0.00 85 1011.9
20260506201317 62 109 3.0 4.0 0.00 0.04 0.00 85 1011.9
20260506200817 63 113 1.0 5.0 0.00 0.04 0.00 84 1011.9
20260506200313 63 112 3.0 5.0 0.00 0.03 0.00 83 1011.9
20260506195814 63 128 3.0 7.0 0.00 0.03 0.00 82 1012.1
20260506195314 64 141 2.0 4.0 0.00 0.03 0.00 80 1012.1
20260506194816 64 146 1.0 5.0 0.00 0.03 0.00 79 1012.1
20260506194313 64 132 2.0 4.0 0.00 0.03 0.00 78 1011.9
20260506193813 64 137 1.0 5.0 0.00 0.03 0.00 77 1011.9
20260506193317 65 121 3.0 6.0 0.00 0.03 0.00 77 1011.9
20260506192813 65 136 4.0 4.0 0.00 0.03 0.00 76 1011.9
20260506192313 65 134 3.0 6.0 0.00 0.03 0.00 76 1011.8
20260506191816 65 146 0.0 5.0 0.00 0.03 0.00 76 1011.8
20260506191313 65 138 2.0 4.0 0.00 0.03 0.00 76 1011.7
20260506190814 65 146 2.0 4.0 0.00 0.03 0.00 76 1011.7
20260506190318 65 138 2.0 7.0 0.00 0.03 0.00 76 1011.7
20260506185813 65 129 2.0 5.0 0.00 0.03 0.00 76 1011.4
20260506185316 65 129 2.0 3.0 0.00 0.03 0.00 77 1011.4
20260506184813 65 127 3.0 3.0 0.00 0.03 0.00 76 1011.4
20260506184316 65 152 2.0 3.0 0.00 0.03 0.00 76 1011.4
20260506183813 65 156 2.0 4.0 0.00 0.03 0.00 76 1011.4
20260506183313 65 148 2.0 4.0 0.00 0.03 0.00 76 1011.4
20260506182813 66 164 1.0 2.0 0.00 0.03 0.00 77 1011.3
20260506182313 66 164 0.0 2.0 0.00 0.03 0.00 77 1011.3
20260506181816 66 164 2.0 3.0 0.00 0.03 0.00 77 1011.3
20260506181316 66 164 2.0 3.0 0.00 0.03 0.00 77 1011.2
20260506180816 66 165 2.0 4.0 0.00 0.03 0.00 77 1011.2
20260506180313 66 162 2.0 3.0 0.00 0.03 0.00 76 1011.2
20260506175816 66 161 2.0 3.0 0.00 0.03 0.00 76 1011.1
20260506175313 66 182 1.0 3.0 0.00 0.03 0.00 75 1011.1
20260506174813 66 197 1.0 3.0 0.00 0.03 0.00 74 1011.1
20260506174316 67 186 2.0 5.0 0.00 0.03 0.00 74 1011.0
20260506173813 67 188 5.0 5.0 0.00 0.03 0.00 72 1011.0
20260506173313 67 194 3.0 3.0 0.00 0.03 0.00 72 1011.0
20260506172813 67 185 2.0 4.0 0.00 0.03 0.00 72 1010.9
20260506172316 67 186 1.0 3.0 0.00 0.03 0.00 72 1010.9
20260506171813 67 167 2.0 5.0 0.00 0.03 0.00 71 1010.9
20260506171316 67 198 1.0 6.0 0.00 0.03 0.00 72 1010.9
20260506170813 67 173 2.0 4.0 0.00 0.03 0.00 71 1010.9
20260506170316 68 159 2.0 4.0 0.00 0.03 0.00 70 1010.9
20260506165813 68 186 3.0 5.0 0.00 0.03 0.00 69 1011.1
20260506165313 68 199 0.0 4.0 0.00 0.03 0.00 69 1011.1
20260506164813 68 209 2.0 4.0 0.00 0.03 0.00 68 1011.1
20260506164316 68 190 4.0 5.0 0.00 0.03 0.00 68 1011.1
20260506163816 68 197 0.0 4.0 0.00 0.03 0.00 69 1011.1
20260506163316 68 194 2.0 2.0 0.00 0.03 0.00 70 1011.1
20260506162816 68 216 1.0 5.0 0.00 0.03 0.00 69 1011.1
20260506162313 68 205 1.0 6.0 0.00 0.03 0.00 68 1011.1
20260506161816 68 205 3.0 7.0 0.00 0.03 0.00 68 1011.1
20260506161313 68 196 2.0 7.0 0.00 0.03 0.00 67 1011.2
20260506160816 68 207 5.0 7.0 0.00 0.03 0.00 66 1011.2
20260506160316 68 193 5.0 6.0 0.00 0.03 0.00 65 1011.2
20260506155813 68 191 2.0 5.0 0.00 0.03 0.00 65 1011.3
20260506155313 68 186 3.0 7.0 0.00 0.03 0.00 65 1011.3
20260506154816 69 205 4.0 5.0 0.00 0.03 0.00 66 1011.3
20260506154313 69 168 4.0 6.0 0.00 0.03 0.00 65 1011.4
20260506153816 69 181 5.0 6.0 0.00 0.03 0.00 63 1011.4
20260506153315 69 194 4.0 7.0 0.00 0.03 0.00 64 1011.4
20260506152815 69 144 3.0 7.0 0.00 0.03 0.00 64 1011.3
20260506152316 69 209 5.0 7.0 0.00 0.03 0.00 66 1011.3
20260506151815 69 171 4.0 7.0 0.00 0.03 0.00 67 1011.3
20260506151312 69 182 6.0 8.0 0.00 0.03 0.00 68 1011.3
20260506150812 69 193 4.0 7.0 0.00 0.03 0.00 68 1011.3
20260506150318 69 164 5.0 7.0 0.00 0.03 0.00 67 1011.3
20260506145815 69 156 4.0 6.0 0.00 0.03 0.00 65 1011.3
20260506145312 69 209 5.0 7.0 0.00 0.03 0.00 65 1011.3
20260506144812 69 177 5.0 8.0 0.00 0.03 0.00 63 1011.3
20260506144312 70 163 4.0 6.0 0.00 0.03 0.00 64 1011.4
20260506143812 70 254 5.0 7.0 0.00 0.03 0.00 64 1011.4
20260506143315 70 167 2.0 8.0 0.00 0.03 0.00 65 1011.4
20260506142815 70 232 2.0 9.0 0.00 0.03 0.00 65 1011.6
20260506142312 70 182 2.0 9.0 0.00 0.03 0.00 64 1011.6
20260506141812 70 221 4.0 10.0 0.00 0.03 0.00 64 1011.6
20260506141312 70 221 5.0 9.0 0.00 0.03 0.00 66 1011.4
20260506140812 70 218 6.0 12.0 0.00 0.03 0.00 63 1011.4
20260506140312 71 229 7.0 11.0 0.00 0.03 0.00 62 1011.4
20260506135815 71 200 7.0 13.0 0.00 0.03 0.00 63 1011.5
20260506135315 71 250 8.0 11.0 0.00 0.03 0.00 63 1011.5
20260506134812 71 207 5.0 13.0 0.00 0.03 0.00 62 1011.5
20260506134315 71 248 8.0 13.0 0.00 0.03 0.00 61 1011.3
20260506133815 71 195 2.0 14.0 0.00 0.03 0.00 61 1011.3
20260506133312 71 252 7.0 12.0 0.00 0.03 0.00 58 1011.3
20260506132812 71 206 4.0 11.0 0.00 0.03 0.00 57 1011.3
20260506132312 71 253 10.0 14.0 0.00 0.03 0.00 58 1011.3
20260506131815 71 269 4.0 11.0 0.00 0.03 0.00 57 1011.3
20260506131312 72 220 7.0 14.0 0.00 0.03 0.00 55 1011.3
20260506130815 72 177 7.0 10.0 0.00 0.03 0.00 56 1011.3
20260506130315 72 208 6.0 11.0 0.00 0.03 0.00 55 1011.3
20260506125815 72 242 8.0 13.0 0.00 0.03 0.00 55 1011.2
20260506125312 73 239 9.0 10.0 0.00 0.03 0.00 56 1011.2
20260506124815 72 197 4.0 10.0 0.00 0.03 0.00 55 1011.2
20260506124315 73 208 4.0 11.0 0.00 0.03 0.00 55 1011.3
20260506123812 73 231 7.0 10.0 0.00 0.03 0.00 54 1011.3
20260506123315 73 197 8.0 10.0 0.00 0.03 0.00 53 1011.3
20260506122812 73 180 3.0 8.0 0.00 0.03 0.00 53 1011.2
20260506122315 72 234 2.0 7.0 0.00 0.03 0.00 53 1011.2
20260506121815 72 246 7.0 9.0 0.00 0.03 0.00 54 1011.2
20260506121312 73 259 3.0 12.0 0.00 0.03 0.00 55 1011.3
20260506120812 73 244 11.0 13.0 0.00 0.03 0.00 54 1011.3
20260506120315 73 216 6.0 11.0 0.00 0.03 0.00 53 1011.3
20260506115815 73 259 6.0 11.0 0.00 0.03 0.00 53 1011.4
20260506115312 73 180 7.0 8.0 0.00 0.03 0.00 55 1011.4
20260506114812 73 203 4.0 12.0 0.00 0.03 0.00 55 1011.4
20260506114315 73 226 3.0 10.0 0.00 0.03 0.00 56 1011.4
20260506113815 73 192 7.0 11.0 0.00 0.03 0.00 56 1011.4
20260506113312 72 172 2.0 10.0 0.00 0.03 0.00 56 1011.4
20260506112812 72 178 7.0 10.0 0.00 0.03 0.00 57 1011.4
20260506112315 73 185 10.0 13.0 0.00 0.03 0.00 58 1011.4
20260506111812 73 143 4.0 14.0 0.00 0.03 0.00 58 1011.4
20260506111312 73 163 4.0 12.0 0.00 0.03 0.00 58 1011.4
20260506110815 73 125 7.0 10.0 0.00 0.03 0.00 57 1011.4
20260506110312 73 153 10.0 9.0 0.00 0.03 0.00 60 1011.4
20260506105812 72 126 5.0 10.0 0.00 0.03 0.00 59 1011.6
20260506105312 72 141 7.0 12.0 0.00 0.03 0.00 59 1011.6
20260506104815 72 197 4.0 9.0 0.00 0.03 0.00 60 1011.6
20260506104315 72 162 7.0 10.0 0.00 0.03 0.00 61 1011.8
20260506103812 72 149 6.0 9.0 0.00 0.03 0.00 62 1011.8
20260506103315 71 134 5.0 11.0 0.00 0.03 0.00 61 1011.8
20260506102815 71 103 5.0 11.0 0.00 0.03 0.00 63 1011.7
20260506102315 71 150 2.0 9.0 0.00 0.03 0.00 66 1011.7
20260506101815 71 126 5.0 17.0 0.00 0.03 0.00 66 1011.7
20260506101312 71 161 8.0 17.0 0.00 0.03 0.00 66 1011.9
20260506100815 71 163 3.0 9.0 0.00 0.03 0.00 66 1011.9
20260506100312 70 203 5.0 9.0 0.00 0.03 0.00 66 1011.9
20260506095815 69 163 5.0 11.0 0.00 0.03 0.00 65 1011.8
20260506095311 70 182 5.0 10.0 0.00 0.03 0.00 67 1011.8
20260506094811 69 154 6.0 9.0 0.00 0.03 0.00 69 1011.8
20260506094311 69 157 6.0 13.0 0.00 0.03 0.00 67 1011.8